#timestamp,LO_Frequency,Hit,StdDev 
1704355215.4,286046996.7,N
1704355235.2,286046998.3,N
1704355255.1,286046998.4,N
1704355256.0,286046998.4,N
1704355275.8,286046997.1,N
1704355295.7,286046999.4,N
1704355315.5,286046998.4,N
1704355335.3,286046999.0,N
1704355355.2,286046997.8,N
1704355375.9,286046996.5,N
1704355395.7,286046998.0,N
1704355415.6,286046996.9,N
1704355435.4,286046997.4,N
1704355455.2,286046997.7,N
1704355475.1,286046998.0,N
1704355476.0,286046998.0,N
1704355495.8,286046995.6,Y
1704355515.7,286046996.6,P
1704355535.5,286046999.4,N
1704355555.3,286046997.0,N
1704355575.2,286046998.7,N
1704355595.0,286047000.1,N
1704355595.9,286047000.1,N
1704355615.8,286047000.1,N
1704355635.6,286047000.4,N
1704355685.5,286047001.1,E
1704355695.4,286046998.1,N
1704355715.2,286046998.9,P
1704355735.1,286046999.0,N
1704355736.0,286046999.0,N
1704355755.8,286046998.5,Y
1704355775.6,286047001.0,P
1704355795.5,286047000.2,N
1704355815.3,286047000.1,N
1704355835.2,286047000.3,N
1704355855.9,286046999.8,N
1704355875.7,286047002.7,Y
1704355895.6,286047002.2,P
1704355915.4,286047002.4,N
1704355935.2,286047001.2,N
1704355955.1,286047000.3,N
1704355956.0,286047000.3,N
1704355975.8,286047000.5,N
1704355995.7,286047002.3,N
1704356015.5,286047002.6,N
1704356035.3,286047002.6,N
1704356055.2,286047004.4,Y
1704356075.0,286047000.5,P
1704356075.9,286047000.5,N
1704356095.8,286047000.5,N
1704356115.6,286047000.4,N
1704356135.5,286046998.2,Y
1704356155.3,286047001.1,P
1704356175.1,286046998.2,P
1704356195.9,286046999.3,N
1704356215.7,286046999.3,N
1704356235.5,286046999.0,N
1704356255.4,286046998.5,N
1704356275.2,286046998.7,N
1704356295.1,286046997.0,Y
1704356296.0,286046997.0,P
1704356315.8,286046999.1,N
1704356335.6,286046999.0,N
1704356355.5,286046999.5,N
1704356375.3,286046997.6,N
1704356395.2,286046997.1,Y
1704356415.9,286047000.6,P
1704356435.7,286047000.8,N
1704356455.6,286046998.5,N
1704356475.4,286047000.3,N
1704356495.2,286047001.2,N
1704356515.1,286047001.2,N
1704356516.0,286047001.2,N
1704356535.8,286047000.0,N
1704356585.7,286047001.9,E
1704356595.6,286047002.8,N
1704356615.4,286046998.6,P
1704356635.3,286047001.0,N
1704356655.1,286047000.0,N
1704356675.9,286047000.0,N
1704356695.7,286047002.1,N
1704356715.5,286047000.7,N
1704356735.4,286047000.6,N
1704356755.2,286046998.8,N
1704356775.1,286046999.1,N
1704356776.0,286046999.1,N
1704356795.8,286046999.3,N
1704356815.6,286046998.7,N
1704356835.5,286046999.2,N
1704356855.3,286046999.3,N
1704356875.2,286046999.3,N
1704356895.9,286046998.4,N
1704356915.7,286047001.0,N
1704356935.6,286046999.9,N
1704356955.4,286047000.0,N
1704356975.2,286047000.1,N
1704356995.1,286047000.5,N
1704356996.0,286047000.5,N
1704357015.8,286046998.5,N
1704357035.7,286047001.0,N
1704357055.5,286046998.7,N
1704357075.3,286046998.3,N
1704357095.2,286047000.6,N
1704357115.0,286047000.9,N
1704357115.9,286047000.9,N
1704357135.8,286046999.8,N
1704357155.6,286047000.0,N
1704357175.4,286047000.3,N
1704357195.3,286047000.3,N
1704357215.1,286047000.3,N
1704357235.9,286047000.2,N
1704357255.7,286047000.6,N
1704357275.5,286047000.7,N
1704357295.4,286047002.8,Y
1704357315.2,286047000.6,P
1704357335.0,286046998.9,N
1704357335.9,286046998.9,N
1704357355.8,286046998.2,N
1704357375.6,286047001.2,N
1704357395.5,286046998.7,N
1704357415.3,286046998.9,N
1704357435.1,286047001.2,N
1704357455.9,286047000.4,N
1704357475.7,286046998.1,N
1704357495.5,286047000.9,N
1704357515.4,286047000.8,N
1704357535.2,286047000.8,N
1704357555.1,286046998.2,N
1704357556.0,286046998.2,N
1704357575.8,286046998.5,N
1704357595.6,286047000.8,N
1704357615.5,286046998.5,N
1704357635.3,286047000.7,N
1704357655.1,286046998.1,N
1704357675.0,286047002.7,N
1704357675.9,286047002.7,N
1704357695.8,286047001.0,N
1704357715.6,286046998.3,N
1704357735.4,286046998.6,N
1704357755.3,286047001.2,N
1704357775.1,286047000.4,N
1704357795.8,286046999.7,N
1704357815.7,286047002.1,N
1704357835.5,286047002.7,N
1704357855.4,286047002.5,N
1704357875.2,286047002.1,N
1704357895.0,286047002.3,N
1704357895.9,286047002.3,N
1704357915.8,286046999.7,N
1704357935.6,286046999.9,N
1704357955.5,286047002.4,N
1704357975.3,286047002.2,N
1704357995.1,286047002.0,N
1704358015.9,286047002.8,N
1704358035.7,286047000.7,N
1704358055.5,286046999.7,N
1704358075.4,286047000.4,N
1704358095.2,286047002.4,N
1704358115.1,286047002.6,N
1704358116.0,286047002.6,N
1704358135.8,286047001.8,N
1704358155.6,286047001.9,N
1704358175.5,286047003.9,N
1704358195.3,286047003.9,N
1704358215.2,286047003.1,N
1704358235.9,286047003.7,N
1704358255.7,286047004.1,N
1704358275.6,286047004.1,N
1704358295.1,286047001.9,N
1704358315.9,286046999.8,N
1704358335.7,286047000.0,N
1704358355.5,286047001.2,N
1704358375.4,286047000.7,N
1704358395.2,286047000.4,N
1704358415.0,286047000.9,N
1704358435.7,286047000.0,N
1704358455.5,286047002.6,N
1704358475.3,286047001.4,N
1704358495.2,286047001.8,N
1704358515.0,286047001.9,N
1704358515.9,286047001.9,N
1704358535.8,286047000.2,N
1704358555.6,286047001.2,N
1704358575.4,286046998.7,N
1704358595.3,286047000.8,N
1704358615.1,286046999.9,N
1704358635.9,286047001.1,N
1704358655.7,286046999.8,N
1704358675.5,286046998.5,N
1704358695.4,286047001.1,N
1704358715.2,286046998.1,N
1704358735.0,286047001.2,N
1704358735.9,286047001.2,N
1704358755.8,286046998.5,N
1704358775.6,286046998.3,N
1704358795.5,286046999.0,N
